User: anonymous   Login
Location: Unspecified
(0.0000°N, 0.0000°E)
Time: 23:04:34
(UTC+00:00)
Language:

Kosmos-887 - Orbit

View from above orbital plane
View from above orbital plane
View from above satellite
View from above satellite

Ground track
Ground track

The orbit data is extracted from the following two-line orbital elements,

1  9637U 76128A   18113.64356590 +.00000035 +00000-0 +21145-4 0  9996
2  9637 082.9433 211.4415 0043679 287.7030 183.7778 13.76209963074255
Epoch (UTC): 23 April 2018 15:26:44
Eccentricity: 0.0043679
inclination: 82.9433°
perigee height: 945 km
apogee height: 1009 km
right ascension of ascending node: 211.4415°
argument of perigee: 287.7030°
revolutions per day: 13.76209963
mean anomaly at epoch: 183.7778°
orbit number at epoch: 7425

The dashed part of the orbit path shows where the satellite is in the earth's shadow,  

DLR